Powrót do katalogu

STARLINK-5553

AktywnyŁącznośćSSO
NORAD 56333·PAYLOAD·🇺🇸 United States

Wystrzelony Apr 27, 2023 z Vandenberg Space Force Base

Loading…

Następne Przeloty (najbliższe 24 godziny)

TLE

ŚwieżeSource: CelesTrak SupGP

Epoka: Sep 14, 2026, 22:19 UTC

1 56333C 23058S   26257.93034722  .00055037  00000+0  17099-2 0  2574
2 56333  97.2847 254.7919 0001706  83.9153 269.8249 15.33384715    10

Śledź STARLINK-5553 w czasie rzeczywistym z AllMySat

Download on the App Store